Location: Boiro
(42.6475°N, 8.8834°W)
Time: 12:39:56
(UTC+01:00)

Transit 4A - Pass Details

Date: 02 December 2021
Orbit: 863 x 981 km, 66.8° (Epoch: 26 January)

Event Time Altitude Azimuth Distance (km) Brightness Sun altitude
Rises 20:44:39 0° 197° (SSW) 3,438 11.1 -29.1°
Reaches altitude 10° 20:47:07 10° 194° (SSW) 2,513 10.3 -29.5°
Enters shadow 20:50:02 31° 183° (S) 1,506 9.0 -30.1°
